Hourly Weather Osh

Today, 29 July, Thursday

Time Temperature Precipitation Wind Pressure Humidity
00:00 +24°C° 0 mm 1 mps 649 mmHg 32%
01:00 +24°C° 0 mm 2 mps 649 mmHg 32%
02:00 +24°C° 0 mm 2 mps 649 mmHg 32%
03:00 +23°C° 0 mm 2 mps 649 mmHg 32%
04:00 +23°C° 0 mm 2 mps 649 mmHg 33%
05:00 +23°C° 0 mm 2 mps 649 mmHg 33%
06:00 +25°C° 0 mm 2 mps 650 mmHg 29%
07:00 +27°C° 0 mm 2 mps 650 mmHg 25%
08:00 +29°C° 0 mm 2 mps 651 mmHg 20%
09:00 +30°C° 0 mm 2 mps 651 mmHg 19%
10:00 +33°C° 0 mm 3 mps 651 mmHg 18%
11:00 +34°C° 0 mm 4 mps 651 mmHg 17%
12:00 +34°C° 0 mm 5 mps 651 mmHg 17%
13:00 +35°C° 0 mm 5 mps 651 mmHg 16%
14:00 +35°C° 0 mm 5 mps 651 mmHg 16%
15:00 +35°C° 0 mm 5 mps 651 mmHg 16%
16:00 +35°C° 0 mm 5 mps 650 mmHg 16%
17:00 +35°C° 0 mm 6 mps 650 mmHg 17%
18:00 +33°C° 0 mm 4 mps 650 mmHg 18%
19:00 +30°C° 0 mm 3 mps 650 mmHg 19%
20:00 +28°C° 0 mm 2 mps 650 mmHg 20%
21:00 +27°C° 0 mm 2 mps 650 mmHg 21%
22:00 +27°C° 0 mm 2 mps 650 mmHg 23%
23:00 +26°C° 0 mm 3 mps 650 mmHg 24%

Tomorrow, 30 July, Friday

Time Temperature Precipitation Wind Pressure Humidity
00:00 +26°C° 0 mm 3 mps 650 mmHg 25%
01:00 +25°C° 0 mm 3 mps 650 mmHg 25%
02:00 +25°C° 0 mm 3 mps 650 mmHg 26%
03:00 +24°C° 0 mm 2 mps 650 mmHg 27%
04:00 +24°C° 0 mm 2 mps 650 mmHg 29%
05:00 +23°C° 0 mm 2 mps 650 mmHg 30%
06:00 +25°C° 0 mm 2 mps 651 mmHg 28%
07:00 +26°C° 0 mm 2 mps 652 mmHg 25%
08:00 +28°C° 0 mm 2 mps 653 mmHg 23%
09:00 +29°C° 0 mm 2 mps 653 mmHg 22%
10:00 +30°C° 0 mm 3 mps 653 mmHg 21%
11:00 +32°C° 0 mm 4 mps 653 mmHg 20%
12:00 +33°C° 0 mm 4 mps 653 mmHg 19%
13:00 +34°C° 0 mm 5 mps 653 mmHg 18%
14:00 +35°C° 0 mm 5 mps 653 mmHg 17%
15:00 +34°C° 0 mm 5 mps 652 mmHg 18%
16:00 +34°C° 0 mm 5 mps 652 mmHg 18%
17:00 +34°C° 0 mm 5 mps 652 mmHg 18%
18:00 +32°C° 0 mm 4 mps 652 mmHg 22%
19:00 +28°C° 0 mm 3 mps 652 mmHg 25%
20:00 +26°C° 0 mm 2 mps 651 mmHg 28%
21:00 +25°C° 0 mm 2 mps 651 mmHg 30%
22:00 +25°C° 0 mm 2 mps 651 mmHg 31%
23:00 +24°C° 0 mm 2 mps 651 mmHg 32%

Day after tomorrow, 31 July, Saturday

Time Temperature Precipitation Wind Pressure Humidity
00:00 +24°C° 0 mm 2 mps 651 mmHg 33%
01:00 +23°C° 0 mm 2 mps 651 mmHg 34%
02:00 +23°C° 0 mm 2 mps 651 mmHg 34%
03:00 +23°C° 0 mm 2 mps 651 mmHg 34%
04:00 +21°C° 0 mm 2 mps 651 mmHg 34%
05:00 +21°C° 0 mm 2 mps 651 mmHg 35%
06:00 +24°C° 0 mm 2 mps 652 mmHg 30%
07:00 +26°C° 0 mm 2 mps 653 mmHg 25%
08:00 +29°C° 0 mm 1 mps 653 mmHg 21%
09:00 +30°C° 0 mm 2 mps 653 mmHg 19%
10:00 +33°C° 0 mm 3 mps 653 mmHg 17%
11:00 +34°C° 0 mm 4 mps 653 mmHg 15%
12:00 +35°C° 0 mm 4 mps 653 mmHg 14%
13:00 +36°C° 0 mm 4 mps 653 mmHg 14%
14:00 +37°C° 0 mm 4 mps 652 mmHg 13%
15:00 +36°C° 0 mm 4 mps 652 mmHg 13%
16:00 +36°C° 0 mm 4 mps 652 mmHg 13%
17:00 +36°C° 0 mm 4 mps 652 mmHg 14%
18:00 +34°C° 0 mm 3 mps 651 mmHg 16%
19:00 +30°C° 0 mm 2 mps 651 mmHg 19%
20:00 +28°C° 0 mm 1 mps 651 mmHg 22%
21:00 +27°C° 0 mm 1 mps 651 mmHg 23%
22:00 +27°C° 0 mm 1 mps 650 mmHg 24%
23:00 +26°C° 0 mm 2 mps 650 mmHg 25%

1 August, Sunday

Time Temperature Precipitation Wind Pressure Humidity
00:00 +26°C° 0 mm 2 mps 650 mmHg 25%
01:00 +25°C° 0 mm 2 mps 650 mmHg 26%
02:00 +25°C° 0 mm 2 mps 649 mmHg 26%
03:00 +24°C° 0 mm 2 mps 650 mmHg 27%
04:00 +24°C° 0 mm 2 mps 650 mmHg 28%
05:00 +24°C° 0 mm 2 mps 650 mmHg 29%
06:00 +26°C° 0.1 mm 2 mps 650 mmHg 27%
07:00 +28°C° 0.1 mm 1 mps 651 mmHg 25%
08:00 +27°C° 0.1 mm 0 mps 651 mmHg 23%
09:00 +31°C° 0 mm 1 mps 652 mmHg 21%
10:00 +32°C° 0 mm 2 mps 652 mmHg 19%
11:00 +34°C° 0 mm 2 mps 652 mmHg 17%
12:00 +35°C° 0 mm 3 mps 651 mmHg 16%
13:00 +36°C° 0 mm 3 mps 651 mmHg 15%
14:00 +37°C° 0 mm 4 mps 651 mmHg 14%
15:00 +36°C° 0 mm 4 mps 651 mmHg 15%
16:00 +36°C° 0 mm 4 mps 651 mmHg 15%
17:00 +36°C° 0 mm 3 mps 651 mmHg 16%
18:00 +34°C° 0 mm 3 mps 650 mmHg 18%
19:00 +31°C° 0 mm 3 mps 650 mmHg 21%
20:00 +29°C° 0 mm 2 mps 650 mmHg 23%
21:00 +28°C° 0 mm 3 mps 650 mmHg 24%
22:00 +27°C° 0 mm 3 mps 650 mmHg 26%
23:00 +26°C° 0 mm 3 mps 649 mmHg 27%

2 August, Monday

Time Temperature Precipitation Wind Pressure Humidity
00:00 +26°C° 0 mm 3 mps 649 mmHg 28%
01:00 +25°C° 0 mm 3 mps 649 mmHg 30%
02:00 +25°C° 0 mm 3 mps 649 mmHg 31%
03:00 +25°C° 0 mm 3 mps 649 mmHg 31%
04:00 +24°C° 0 mm 3 mps 649 mmHg 31%
05:00 +24°C° 0 mm 3 mps 649 mmHg 31%
06:00 +26°C° 0 mm 2 mps 650 mmHg 26%
07:00 +29°C° 0 mm 1 mps 650 mmHg 22%
08:00 +31°C° 0 mm 1 mps 651 mmHg 18%
09:00 +32°C° 0 mm 2 mps 651 mmHg 17%
10:00 +35°C° 0 mm 3 mps 652 mmHg 15%
11:00 +36°C° 0 mm 4 mps 652 mmHg 14%
12:00 +37°C° 0 mm 4 mps 652 mmHg 14%
13:00 +37°C° 0 mm 4 mps 651 mmHg 13%
14:00 +38°C° 0 mm 4 mps 651 mmHg 13%
15:00 +38°C° 0 mm 4 mps 651 mmHg 13%
16:00 +37°C° 0 mm 5 mps 651 mmHg 14%
17:00 +37°C° 0 mm 5 mps 651 mmHg 14%
18:00 +34°C° 0.1 mm 4 mps 651 mmHg 19%
19:00 +32°C° 0.1 mm 4 mps 650 mmHg 24%
20:00 +28°C° 0.1 mm 3 mps 650 mmHg 29%
21:00 +27°C° 0 mm 3 mps 650 mmHg 29%
22:00 +27°C° 0 mm 3 mps 650 mmHg 30%
23:00 +26°C° 0 mm 3 mps 650 mmHg 31%

3 August, Tuesday

Time Temperature Precipitation Wind Pressure Humidity
00:00 +26°C° 0 mm 3 mps 650 mmHg 31%
01:00 +25°C° 0 mm 3 mps 650 mmHg 30%
02:00 +25°C° 0 mm 2 mps 650 mmHg 30%
03:00 +25°C° 0 mm 2 mps 650 mmHg 31%
04:00 +24°C° 0 mm 2 mps 650 mmHg 32%
05:00 +24°C° 0 mm 2 mps 650 mmHg 33%
06:00 +26°C° 0 mm 2 mps 651 mmHg 29%
07:00 +28°C° 0 mm 1 mps 652 mmHg 24%
08:00 +31°C° 0 mm 1 mps 653 mmHg 20%
09:00 +32°C° 0 mm 2 mps 653 mmHg 19%
10:00 +35°C° 0 mm 3 mps 653 mmHg 17%
11:00 +36°C° 0 mm 4 mps 653 mmHg 15%
12:00 +37°C° 0 mm 4 mps 653 mmHg 14%
13:00 +37°C° 0 mm 4 mps 653 mmHg 14%
14:00 +39°C° 0 mm 5 mps 653 mmHg 13%
15:00 +38°C° 0 mm 4 mps 653 mmHg 14%
16:00 +38°C° 0 mm 4 mps 652 mmHg 14%
17:00 +38°C° 0 mm 4 mps 652 mmHg 14%
18:00 +35°C° 0 mm 4 mps 652 mmHg 16%
19:00 +33°C° 0 mm 3 mps 652 mmHg 18%
20:00 +30°C° 0 mm 3 mps 651 mmHg 20%
21:00 +29°C° 0 mm 3 mps 652 mmHg 22%
22:00 +28°C° 0 mm 2 mps 652 mmHg 24%
23:00 +28°C° 0 mm 2 mps 652 mmHg 25%
Show more